SCP
0 0 0 0 0 0 0 0 0 0 0 0 0 0 0 0 0 0 0 0 0 0
0 0 0 0 0 0 0 0 0 0 0 0 0 0 0 0 0 0 0 0 0 0
0 0 0 0 0 0 0 0 0 0 0 0 0 0 0 0 0 0 0 0 0 0
0 0 0 0 0 0 0 0 0 0 0 0 0 0 0 0 0 0 0 0 0 0
0 0 0 0 0 0 0 0 0 0 0 0 0 0 0 0 0 0 0 0 0 0
0 0 0 0 0 0 0 0 0 0 0 0 0 0 0 0 0 0 0 0 0 0
0 0 0 0 0 0 0 0 0 0 0 0 0 0 0 0 0 0 0 0 0 0
0 0 0 0 0 0 0 0 0 0 0 0 0 0 0 0 0 0 0 0 0 0
0 0 0 0 0 0 0 0 0 0 0 0 0 0 0 0 0 0 0 0 0 0
0 0 0 0 0 0 0 0 0 0 0 0 0 0 0 0 0 0 0 0 0 0
0 0 0 0 0 0 0 0 0 0 0 0 0 0 0 0 0 0 0 0 0 0
0 0 0 0 0 0 0 0 0 0 0 0 0 0 0 0 0 0 0 0 0 0
0 0 0 0 0 0 0 0 0 0 0 0 0 0 0 0 0 0 0 0 0 0
0 0 0 0 0 0 0 0 0 0 0 0 0 0 0 0 0 0 0 0 0 0
Wind_Speed_500mb
72 75 69 60 52 44 39 35 30 23 17 10 5 4 7 11 13 14 14 15 16 18
78 73 67 58 50 43 40 35 31 25 17 11 6 1 5 7 6 6 8 11 15 19
80 74 66 59 53 48 42 37 31 26 20 14 8 2 2 2 2 4 7 12 16 19
86 78 70 61 55 47 42 37 33 29 24 18 11 6 4 2 1 3 8 13 17 21
87 81 73 66 56 49 44 42 37 34 27 20 15 10 6 5 4 5 10 15 20 24
88 82 74 67 59 54 50 46 44 38 30 25 20 14 11 10 9 11 15 19 23 27
88 82 76 70 63 58 53 50 47 41 37 31 23 18 16 16 15 15 20 25 28 31
88 81 78 73 67 62 57 54 50 46 42 36 28 23 20 21 19 21 24 28 32 34
87 84 80 74 70 65 61 60 57 52 46 38 31 27 24 27 24 27 28 31 35 37
90 87 83 77 73 68 67 64 60 53 51 42 37 31 32 31 29 31 32 36 38 39
93 88 82 78 74 71 69 65 58 59 53 48 41 39 40 36 35 36 38 40 41 43
91 86 83 81 78 72 68 66 61 67 59 52 46 47 45 44 44 42 43 44 44 46
87 82 87 81 76 66 69 65 74 68 62 54 54 52 52 53 52 50 48 47 49 50
86 90 83 78 73 67 71 78 75 67 62 60 59 57 57 58 60 56 54 54 53 52
Wind_Direction_500mb
195 187 182 179 177 174 174 175 167 162 155 144 116 46 26 24 23 26 20 18 12 5
191 188 184 178 177 179 180 177 173 170 173 172 183 136 30 24 28 37 29 16 6 354
191 189 186 185 183 185 182 180 179 183 184 189 190 167 30 358 49 51 27 8 356 348
192 190 190 188 188 187 185 188 191 191 195 196 195 199 221 197 128 28 2 358 350 344
195 194 193 192 192 191 193 194 196 196 199 201 204 212 222 213 239 301 328 340 340 337
198 197 196 197 197 197 197 197 197 204 209 210 211 218 226 226 257 295 313 322 324 325
203 203 201 202 202 202 201 203 205 210 214 215 217 222 228 239 256 278 299 309 311 315
206 206 205 205 205 204 205 208 213 215 215 216 220 229 237 246 260 279 291 295 298 305
208 208 209 209 208 207 209 212 216 218 218 220 226 233 243 247 263 275 283 287 291 298
211 211 212 212 211 213 215 218 221 222 223 225 229 235 243 247 257 270 280 282 286 293
213 214 215 216 217 218 221 224 227 231 227 230 231 243 242 247 256 268 276 279 284 292
218 219 220 220 222 224 228 227 241 234 231 233 239 243 245 249 257 265 272 277 284 289
221 227 227 227 228 232 234 243 243 233 235 239 242 245 247 250 259 264 271 277 283 286
234 232 232 230 230 237 237 244 236 236 239 244 249 251 253 255 260 266 272 276 281 285
Wind_Speed_850mb
72 75 69 60 52 44 39 35 30 23 17 10 5 4 7 11 13 14 14 15 16 18
78 73 67 58 50 43 40 35 31 25 17 11 6 1 5 7 6 6 8 11 15 19
80 74 66 59 53 48 42 37 31 26 20 14 8 2 2 2 2 4 7 12 16 19
86 78 70 61 55 47 42 37 33 29 24 18 11 6 4 2 1 3 8 13 17 21
87 81 73 66 56 49 44 42 37 34 27 20 15 10 6 5 4 5 10 15 20 24
88 82 74 67 59 54 50 46 44 38 30 25 20 14 11 10 9 11 15 19 23 27
88 82 76 70 63 58 53 50 47 41 37 31 23 18 16 16 15 15 20 25 28 31
88 81 78 73 67 62 57 54 50 46 42 36 28 23 20 21 19 21 24 28 32 34
87 84 80 74 70 65 61 60 57 52 46 38 31 27 24 27 24 27 28 31 35 37
90 87 83 77 73 68 67 64 60 53 51 42 37 31 32 31 29 31 32 36 38 39
93 88 82 78 74 71 69 65 58 59 53 48 41 39 40 36 35 36 38 40 41 43
91 86 83 81 78 72 68 66 61 67 59 52 46 47 45 44 44 42 43 44 44 46
87 82 87 81 76 66 69 65 74 68 62 54 54 52 52 53 52 50 48 47 49 50
86 90 83 78 73 67 71 78 75 67 62 60 59 57 57 58 60 56 54 54 53 52
Wind_Direction_850mb
195 187 182 179 177 174 174 175 167 162 155 144 116 46 26 24 23 26 20 18 12 5
191 188 184 178 177 179 180 177 173 170 173 172 183 136 30 24 28 37 29 16 6 354
191 189 186 185 183 185 182 180 179 183 184 189 190 167 30 358 49 51 27 8 356 348
192 190 190 188 188 187 185 188 191 191 195 196 195 199 221 197 128 28 2 358 350 344
195 194 193 192 192 191 193 194 196 196 199 201 204 212 222 213 239 301 328 340 340 337
198 197 196 197 197 197 197 197 197 204 209 210 211 218 226 226 257 295 313 322 324 325
203 203 201 202 202 202 201 203 205 210 214 215 217 222 228 239 256 278 299 309 311 315
206 206 205 205 205 204 205 208 213 215 215 216 220 229 237 246 260 279 291 295 298 305
208 208 209 209 208 207 209 212 216 218 218 220 226 233 243 247 263 275 283 287 291 298
211 211 212 212 211 213 215 218 221 222 223 225 229 235 243 247 257 270 280 282 286 293
213 214 215 216 217 218 221 224 227 231 227 230 231 243 242 247 256 268 276 279 284 292
218 219 220 220 222 224 228 227 241 234 231 233 239 243 245 249 257 265 272 277 284 289
221 227 227 227 228 232 234 243 243 233 235 239 242 245 247 250 259 264 271 277 283 286
234 232 232 230 230 237 237 244 236 236 239 244 249 251 253 255 260 266 272 276 281 285